Location: Arcusa
(42.3167°N, 0.0833°W)
Time: 16:00:33
(UTC+00:00)

Cosmos 1703 - Pass Details

Date: 25 January 2020
Orbit: 524 x 541 km, 82.5° (Epoch: 18 February)

Event Time Altitude Azimuth Distance (km) Brightness Sun altitude
Exits shadow 05:53:18 17° 334° (NNW) 1,395 5.0 -16.2°
Maximum altitude 05:56:02 46° 266° (W) 720 3.5 -15.7°
Drops below altitude 10° 05:59:47 10° 193° (SSW) 1,774 5.9 -15.0°
Sets 06:01:57 0° 187° (S) 2,656 6.9 -14.6°
